Hlavní strana
METAR-TAF:

METAR-TAF

Letiště :

Glasgow Municipal Airport

Glasgow, Kentucky, Spojené státy americké

zeměpisná šířka: 37-01-54N, zeměpisná délka: 085-57-13W, výška: 218 m

Aktuální stav počasí

Zpráva byla vytvořena před 21 minutami, v 12:55 UTC
Bezvětří
Teplota 5°C
Vlhkost vzduchu 93%
Tlak 1025 hPa
Viditelnost: 16.1 km
Jasno

METAR: KGLW 191255Z AUTO 00000KT 10SM CLR 05/04 A3028 RMK AO2 T00460036

Čas: 08:16 (13:16 UTC)


TAF: chybějící

Stav a předpovědi počasí z více než 4 000 letišť (zprávy METAR a TAF).

Červené a žluté tečky na mapě představují dostupné meteorologické stanice.

Když kurzor umístíte na tečku, zobrazí se název stanice.

Pak kliknutím zobrazíte stav a předpověď počasí.

Chcete-li změnit mapu, kliknutím na zelené tlačítko se znaménkem +mapu přiblížíte, kliknutím na zelené tlačítko se znaménkem – mapu oddálíte a kliknutím na zelené šipky přejdete na sousední mapy.


METAR-TAF: